This is the latest recevied weather packets stored in our database for station/object W7TRD. If no packets are shown the sender has not sent any weather packets the latest 10 day(s).
| Time | Temp. | Humidity | Pressure | Rain* | Wind** | Luminosity | Snow |
|---|---|---|---|---|---|---|---|
| 1788251393 | 17.22° C | 77% | 1011.3 hPa | 0 mm | - | 0 W/m² | - |
| 1788251088 | 17.22° C | 77% | 1011.3 hPa | 0 mm | - | 0 W/m² | - |
| 1788250795 | 17.22° C | 77% | 1011.1 hPa | 0 mm | - | 0 W/m² | - |
| 1788250478 | 17.78° C | 77% | 1011.1 hPa | 0 mm | - | 0 W/m² | - |
| 1788250173 | 17.78° C | 76% | 1011 hPa | 0 mm | - | 0 W/m² | - |
| 1788249873 | 17.78° C | 76% | 1011.1 hPa | 0 mm | - | 0 W/m² | - |
| 1788249572 | 17.78° C | 76% | 1011.1 hPa | 0 mm | - | 0 W/m² | - |
| 1788249268 | 17.78° C | 75% | 1011 hPa | 0 mm | - | 0 W/m² | - |
| 1788248968 | 18.33° C | 74% | 1010.9 hPa | 0 mm | - | 0 W/m² | - |
| 1788248363 | 18.33° C | 73% | 1010.8 hPa | 0 mm | - | 0 W/m² | - |
| 1788248059 | 18.89° C | 73% | 1010.8 hPa | 0 mm | - | 0 W/m² | - |
| 1788247755 | 18.89° C | 73% | 1010.6 hPa | 0 mm | - | 0 W/m² | - |
| 1788247455 | 18.89° C | 72% | 1010.8 hPa | 0 mm | - | 0 W/m² | - |
| 1788247150 | 18.33° C | 73% | 1010.5 hPa | 0 mm | - | 0 W/m² | - |
| 1788246849 | 17.78° C | 76% | 1010.5 hPa | 0 mm | - | 0 W/m² | - |
| 1788246547 | 18.33° C | 76% | 1010.5 hPa | 0 mm | - | 0 W/m² | - |
| 1788246243 | 18.33° C | 74% | 1010.2 hPa | 0 mm | - | 0 W/m² | - |
| 1788245942 | 18.89° C | 74% | 1010.3 hPa | 0 mm | - | 0 W/m² | - |
| 1788245637 | 18.89° C | 73% | 1010.2 hPa | 0 mm | - | 0 W/m² | - |
| 1788245333 | 18.89° C | 73% | 1009.9 hPa | 0 mm | - | 0 W/m² | - |
| 1788245029 | 18.89° C | 73% | 1010 hPa | 0 mm | - | 0 W/m² | - |
| 1788244726 | 19.44° C | 72% | 1009.8 hPa | 0 mm | - | 0 W/m² | - |
| 1788244422 | 19.44° C | 71% | 1009.9 hPa | 0 mm | - | 0 W/m² | - |
| 1788244118 | 19.44° C | 71% | 1009.8 hPa | 0 mm | - | 0 W/m² | - |
| 1788243814 | 19.44° C | 71% | 1009.7 hPa | 0 mm | - | 0 W/m² | - |
* Rain latest hour (hover to see other rain measurements)
** Current wind speed in m/s (hover to see current wind gust speed)